Wind_Speed
6 5 5 4 3 3 3 4 5 6 7 8 10 10 11 12 12 13 13 13 13 13 14 14 15 16 17 18 19 20 21 23 25 26 28 30 31 33 35 37 38 40 40 41 41 40 40 40 40 39 36 37 37 36 36 34 33 33 32 32 32 30 30 32 38 47 49 45 47 50 49 49 51 52 50 48 47 44 43 43 41 40 41 41 40
6 5 4 3 3 4 5 7 8 9 10 11 12 13 14 14 14 15 15 15 16 16 17 18 19 20 21 22 23 24 25 26 27 29 30 31 32 33 35 37 39 41 43 45 46 45 45 45 44 43 40 39 40 39 38 37 36 37 36 34 35 34 32 33 36 42 46 44 42 44 45 46 49 51 49 49 48 46 46 47 45 44 43 42 42
5 4 4 5 6 7 9 10 11 12 13 14 15 15 16 16 16 16 16 16 17 18 19 20 21 22 23 25 26 27 28 30 31 32 34 35 36 36 37 38 39 41 43 44 46 46 47 48 48 47 45 44 44 42 41 40 39 40 40 38 38 37 35 34 36 40 45 45 41 40 41 42 45 47 46 47 47 46 47 49 48 47 46 45 45
6 6 6 7 8 10 11 12 13 14 15 16 17 18 19 19 19 20 20 20 21 21 22 23 24 26 27 28 29 31 32 34 35 36 37 38 39 39 40 41 41 42 43 43 43 43 44 46 47 48 48 48 48 47 45 43 42 42 42 42 41 41 39 37 38 40 44 46 45 42 40 41 42 43 42 43 45 45 47 48 49 50 49 48 47
7 7 8 8 10 11 12 14 15 16 17 18 20 20 21 22 23 23 24 24 25 25 25 26 27 28 30 31 32 34 35 37 38 39 40 40 41 42 43 44 44 45 44 43 42 42 42 43 44 44 46 48 50 50 49 47 46 45 44 44 44 43 42 41 41 42 44 47 48 45 42 42 42 42 41 41 42 44 45 47 48 49 50 50 49
9 9 9 10 11 12 14 16 17 18 19 20 21 22 23 24 24 25 25 26 26 27 27 28 29 30 31 33 34 35 37 38 40 41 42 43 44 45 46 47 48 48 48 47 46 45 44 44 44 44 44 46 48 50 51 50 49 48 46 46 45 44 44 44 43 44 45 48 49 48 46 44 43 43 42 39 40 42 44 46 48 48 49 50 51
11 11 11 12 13 15 16 17 18 19 21 22 23 24 24 25 26 26 26 27 27 28 29 30 31 32 33 34 36 37 38 39 40 41 42 43 44 46 47 49 50 50 51 51 51 50 50 49 49 48 47 47 48 49 50 51 51 50 49 47 45 43 43 44 44 44 46 48 50 50 48 46 45 45 44 41 39 41 41 43 46 48 48 49 51
14 14 14 15 16 17 18 19 20 22 23 25 26 27 27 28 28 28 28 28 29 30 31 32 32 33 35 36 37 38 39 40 41 42 43 43 44 46 47 49 50 51 52 53 54 55 56 55 55 54 52 51 51 50 50 50 50 51 51 48 45 42 41 43 44 44 45 48 50 51 49 47 45 45 45 42 42 43 42 41 44 47 48 49 50
17 17 18 18 19 20 20 21 22 24 27 28 29 30 31 31 31 31 31 31 31 32 33 34 35 35 36 37 38 39 40 41 42 43 44 44 45 46 48 49 50 52 53 54 56 57 58 59 59 58 56 55 53 52 51 49 47 48 49 47 44 42 41 42 43 44 45 46 50 51 49 48 47 45 44 44 45 45 42 39 41 44 45 48 50
20 20 21 21 21 21 22 23 24 26 29 31 33 33 33 33 33 33 33 33 33 34 35 36 37 38 38 39 40 40 41 42 42 43 44 45 47 48 49 50 51 53 55 56 57 58 59 60 61 61 59 57 55 53 51 50 48 47 46 44 41 40 41 42 43 44 44 46 48 49 48 49 49 46 44 45 45 43 41 40 40 41 42 46 49
21 23 23 23 22 23 23 24 26 28 31 33 35 35 35 35 35 34 34 34 35 36 37 38 39 40 40 40 41 41 42 42 43 44 45 46 48 49 51 52 53 55 56 58 59 60 60 61 61 61 59 55 52 49 48 48 47 46 46 46 43 40 39 41 44 44 44 45 48 49 49 50 52 48 44 43 42 42 41 40 40 40 40 43 47
24 25 25 25 24 24 25 26 27 30 33 35 36 36 36 36 36 35 35 35 37 38 38 39 40 41 41 42 42 42 43 44 45 46 47 48 48 49 51 53 55 56 57 58 59 60 60 60 60 59 56 52 47 44 44 44 44 44 44 46 47 44 40 39 41 42 44 45 47 49 50 51 53 51 46 41 40 40 40 40 40 40 40 42 45
26 27 27 27 27 26 26 27 29 32 34 36 36 36 36 36 36 36 36 37 39 39 40 40 41 41 42 42 43 44 44 45 46 48 49 49 48 48 50 52 54 55 56 56 57 58 57 57 57 56 54 51 48 45 44 45 45 45 45 47 48 48 46 44 43 43 44 44 47 50 52 51 52 53 49 42 38 38 38 39 40 40 40 43 45
28 29 29 29 28 27 28 28 30 34 35 36 36 35 36 36 36 36 38 39 40 40 41 41 42 42 43 43 44 45 45 46 48 48 48 48 48 47 49 51 52 53 54 54 54 54 53 52 53 53 51 48 46 43 41 41 41 41 42 43 45 46 47 48 48 49 48 47 47 51 53 52 52 54 52 45 41 40 39 40 40 40 42 44 44
30 30 30 30 29 29 29 29 32 35 35 35 36 36 36 36 36 37 39 40 41 41 41 42 42 42 43 44 44 45 46 47 48 48 48 48 47 47 49 50 51 52 52 51 50 50 49 48 47 47 46 44 42 40 36 34 35 36 37 38 40 41 43 44 45 46 46 46 46 49 52 54 54 55 54 50 46 45 44 42 42 41 42 43 44
30 31 31 31 30 29 29 31 33 34 35 35 36 36 36 37 37 39 40 41 41 41 41 42 42 43 43 44 45 46 47 48 47 47 47 47 46 47 48 49 50 50 50 49 48 47 45 42 41 41 41 40 39 36 32 31 34 35 36 37 38 40 42 42 39 38 39 41 43 45 48 51 52 54 54 52 49 47 46 45 44 43 43 44 45
31 31 31 31 30 29 29 31 33 34 35 36 36 37 37 37 39 40 41 42 41 41 42 42 42 43 43 44 46 47 48 47 46 46 46 45 44 45 46 46 47 47 47 46 45 43 41 38 37 38 39 40 39 35 31 32 35 36 37 39 40 41 42 40 36 35 36 38 42 44 45 46 47 48 49 50 49 46 45 47 47 45 44 45 46
31 31 31 30 28 28 29 31 32 33 35 36 37 37 37 38 40 40 41 42 41 41 42 42 42 42 43 44 46 47 49 47 45 45 45 43 41 42 42 43 44 45 45 44 42 40 40 38 37 38 40 40 38 36 33 32 34 35 37 39 42 43 42 40 38 38 38 38 39 42 45 47 48 47 46 46 47 45 46 49 49 47 46 46 47
31 30 29 28 27 28 30 31 32 33 35 37 37 37 38 39 40 40 40 41 41 41 41 42 42 43 43 44 45 46 47 46 44 43 43 40 39 38 39 40 42 43 43 42 40 39 39 39 37 37 38 37 36 35 34 32 34 36 38 40 44 46 43 41 40 40 40 40 40 41 42 44 46 49 50 49 48 48 49 51 50 50 50 49 48
29 28 27 27 28 29 30 31 32 34 35 36 36 37 38 39 39 39 39 39 39 40 41 41 43 44 43 44 45 44 44 45 43 41 40 38 36 35 36 38 40 41 40 39 40 41 40 40 39 36 35 34 33 33 33 33 34 37 38 40 44 46 43 41 40 38 39 41 42 42 44 45 43 44 47 49 50 50 51 52 52 53 53 51 50
28 27 27 28 29 30 30 32 33 34 34 35 36 37 37 38 38 38 38 38 39 39 40 41 43 44 44 44 44 43 41 42 41 40 38 36 34 32 34 36 37 38 39 39 41 42 42 42 41 37 34 34 34 34 34 33 32 34 37 39 41 41 39 40 42 41 41 43 44 44 46 47 46 45 44 46 48 49 49 50 52 54 54 54 53
28 28 28 29 30 31 31 32 33 33 34 35 36 37 37 36 36 36 36 37 38 39 40 41 42 44 44 44 43 41 39 38 38 37 36 34 32 31 32 33 33 34 38 40 41 42 42 43 41 38 36 36 36 35 34 33 33 36 38 39 40 39 39 41 43 43 44 46 46 47 47 47 47 47 46 46 47 48 48 49 50 52 54 55 55
29 29 30 30 30 30 31 32 33 33 34 35 36 37 36 35 35 35 34 35 37 38 39 40 41 43 44 44 42 40 38 36 36 35 34 32 31 30 29 29 29 32 36 40 41 41 42 42 41 39 38 38 37 36 36 36 37 39 40 39 40 40 40 40 42 43 45 47 48 50 52 51 49 48 46 45 45 45 46 48 49 51 52 54 55
30 30 30 30 30 30 32 32 33 33 34 35 36 36 35 34 34 33 33 34 35 37 38 39 40 42 44 44 43 40 38 38 37 35 33 31 30 29 28 27 28 30 33 37 38 39 41 41 40 39 38 38 38 37 38 38 38 38 39 39 39 40 39 40 42 43 45 47 49 51 52 52 51 50 48 46 44 43 43 45 48 50 51 52 53
31 31 30 30 30 31 32 32 32 33 33 34 35 34 34 34 33 33 32 33 34 36 37 38 39 41 42 43 43 42 40 39 39 37 34 32 31 31 30 30 29 29 33 37 39 40 41 40 38 37 37 38 38 38 39 38 38 38 38 39 40 41 42 43 44 45 46 48 50 51 52 51 50 49 49 48 47 45 44 44 46 49 50 51 51
31 30 31 31 31 32 32 32 32 33 33 33 33 33 32 32 33 32 32 32 33 35 36 37 38 39 41 42 42 43 41 40 39 37 35 34 33 34 35 35 35 35 38 41 41 42 41 39 38 38 39 39 39 39 40 40 40 41 41 40 41 43 43 44 44 45 47 49 49 51 52 52 50 48 47 47 48 49 48 46 46 48 49 49 49
31 30 30 31 31 31 31 32 32 32 32 32 32 31 30 30 31 32 31 31 33 34 35 36 36 37 39 40 41 41 41 39 38 37 35 35 36 38 39 40 40 42 43 44 44 44 44 43 41 41 41 40 40 40 41 42 44 44 44 43 43 44 45 45 46 46 46 47 48 50 51 50 49 48 46 45 46 47 48 48 48 48 48 48 48
31 30 30 30 30 30 31 32 32 33 32 31 31 30 29 29 30 30 29 29 31 33 34 35 35 35 36 38 39 40 39 38 37 36 36 36 38 39 40 41 42 43 43 44 45 45 45 43 42 41 41 42 41 40 41 42 44 45 46 47 46 47 47 47 47 47 47 47 48 49 49 47 47 47 47 46 46 46 46 47 48 49 48 47 46
30 30 29 29 29 30 31 32 32 32 32 31 30 29 28 28 28 29 28 28 29 31 33 34 33 33 33 33 35 37 39 38 35 33 33 34 35 37 38 39 39 39 39 40 41 42 41 40 40 40 40 40 39 40 41 43 45 46 47 47 47 47 46 46 46 47 48 47 48 48 47 45 45 45 46 46 47 46 46 46 46 47 47 47 46
30 29 28 29 29 30 31 31 31 31 31 31 31 30 28 26 26 28 29 28 27 27 29 30 29 28 28 30 31 33 35 35 33 31 31 32 33 34 35 34 34 35 36 37 37 38 39 39 39 39 39 40 41 43 44 44 44 44 45 45 45 45 45 45 46 47 47 46 47 46 44 43 44 44 45 47 47 46 45 44 43 42 44 46 46
29 28 28 28 29 30 31 31 31 30 30 30 30 31 31 28 25 23 25 27 27 25 25 26 25 24 25 28 29 30 31 32 31 31 31 31 31 32 32 32 32 34 36 37 37 36 36 37 39 39 39 40 40 40 39 39 39 41 43 44 44 43 43 43 43 44 45 45 45 44 42 42 43 43 44 45 45 43 41 40 39 41 45 47 46
28 27 27 28 29 30 31 31 30 30 30 29 29 30 31 32 29 24 21 23 25 25 24 24 23 22 23 25 28 30 30 31 31 31 29 29 29 29 31 32 33 35 35 35 34 34 33 33 35 36 36 35 34 33 33 35 37 40 41 42 42 41 41 42 42 42 43 43 42 41 40 40 41 41 41 41 40 38 36 36 37 40 45 46 44
27 27 28 29 29 30 30 30 30 29 29 29 29 29 30 32 32 30 25 22 21 21 21 21 22 24 23 23 25 28 29 29 30 30 28 27 28 29 31 32 33 33 32 31 30 29 29 29 30 31 31 30 29 30 32 33 35 37 38 39 40 41 41 40 39 39 40 39 37 36 35 35 36 37 38 38 35 32 32 33 34 38 41 42 42
27 27 28 28 29 30 29 29 29 29 28 28 28 29 29 29 30 31 31 29 26 22 19 17 19 22 25 25 25 26 28 29 29 28 28 28 28 29 31 32 31 29 27 26 25 25 25 26 27 27 27 27 27 29 31 32 33 36 36 37 38 39 40 38 36 35 34 32 31 29 28 29 31 33 35 35 32 30 29 30 31 33 35 37 37
27 27 28 28 29 29 29 28 28 28 28 28 28 28 28 28 27 28 28 29 29 27 23 19 17 19 23 25 25 26 27 28 27 28 29 30 29 29 30 30 29 27 26 25 24 24 24 25 25 26 27 27 27 28 30 31 33 34 36 37 37 37 37 35 33 32 30 28 27 25 25 27 30 32 34 33 31 29 30 30 30 31 32 33 33
27 27 27 27 28 28 28 28 27 27 28 28 27 27 27 26 26 25 25 26 26 26 25 22 19 18 20 23 24 24 25 26 27 29 30 30 28 28 28 27 27 26 26 25 25 25 25 25 25 26 26 27 27 28 29 31 32 34 35 37 36 34 33 33 31 30 28 27 26 26 27 29 31 32 33 31 29 28 29 29 30 31 33 35 35
27 28 27 27 27 28 27 27 26 26 27 27 27 27 26 24 24 24 24 24 24 23 23 23 22 21 21 22 23 24 23 23 24 26 26 26 26 26 25 25 25 25 24 24 24 25 25 25 25 25 26 27 27 28 29 30 32 33 34 34 33 31 30 30 29 28 28 28 27 27 28 30 30 30 30 30 28 27 26 27 30 32 33 34 35
27 27 27 27 27 27 26 26 25 25 26 26 25 26 25 23 22 22 22 22 22 21 21 21 21 22 22 23 23 24 23 22 23 24 24 26 26 27 26 26 26 26 25 25 24 24 25 25 24 25 26 26 27 28 29 30 31 32 33 33 31 29 27 27 26 26 27 28 29 29 30 31 31 29 27 28 28 25 23 24 27 29 29 30 32
27 27 26 26 26 26 26 25 25 24 24 24 24 24 24 22 21 21 21 20 20 19 19 18 18 19 20 21 22 23 23 23 24 25 25 26 27 27 28 27 27 27 26 26 25 25 25 25 24 25 25 26 26 27 28 29 30 30 31 31 30 28 26 25 24 24 23 24 25 26 27 27 26 25 24 26 26 25 22 22 24 24 24 24 26
26 26 26 25 25 26 25 25 24 24 23 23 22 22 22 21 20 20 19 19 18 17 16 16 15 15 16 18 19 20 21 22 22 23 23 25 26 27 28 28 28 27 27 26 26 26 26 25 25 25 25 26 26 26 26 27 28 29 29 29 29 27 25 24 23 22 21 20 20 19 20 20 20 21 24 25 25 23 22 21 21 21 21 22 23
26 26 25 24 24 24 24 24 23 23 22 22 22 21 21 20 20 19 18 17 16 16 14 13 12 12 13 14 15 16 17 19 20 20 21 23 24 26 27 27 28 28 27 26 26 26 26 25 24 24 25 25 26 26 26 25 26 27 28 28 28 26 24 22 21 20 19 18 17 16 15 14 15 18 22 25 24 22 21 20 19 20 21 23 25
26 25 24 23 23 23 23 23 22 22 22 21 20 20 20 19 18 17 16 15 15 14 13 11 10 9 10 12 12 13 15 17 18 19 20 21 22 23 24 25 26 27 27 27 26 26 26 25 24 23 24 25 26 27 27 26 25 25 26 27 27 26 25 23 20 18 17 16 16 16 14 12 10 12 15 19 20 20 19 19 20 22 23 25 28
26 25 23 22 22 22 22 22 21 21 21 20 19 19 18 18 18 16 15 14 13 13 12 11 9 8 9 11 12 13 14 16 17 18 19 20 21 22 23 24 24 25 26 26 26 25 25 25 24 23 22 22 24 26 27 26 25 24 24 25 25 25 24 23 21 19 18 17 16 15 15 13 10 9 10 12 14 16 17 17 19 21 23 25 26
25 24 22 21 21 21 21 21 20 20 20 19 18 18 17 17 16 15 14 13 12 12 12 11 10 9 10 10 11 12 14 15 16 17 18 19 20 21 22 23 24 24 25 25 26 26 26 26 26 25 23 22 22 23 24 26 26 25 24 24 24 23 23 22 21 20 20 18 17 16 15 14 12 9 8 9 11 12 13 14 15 17 19 20 22
24 22 21 20 20 19 19 20 19 19 19 18 17 17 16 16 15 14 13 13 12 12 11 11 10 10 10 11 12 12 13 14 15 16 16 18 19 20 21 22 23 23 24 25 25 26 26 27 27 27 27 26 25 24 23 24 26 26 26 25 24 24 23 22 21 19 18 17 16 16 16 15 14 11 9 9 9 9 10 11 12 14 15 17 19
22 20 20 19 19 19 18 19 19 18 18 17 16 16 15 15 15 14 13 13 12 12 11 11 10 11 11 11 12 12 13 13 14 14 15 16 17 18 19 20 21 22 23 24 25 26 26 27 27 27 28 28 28 28 27 26 26 26 27 26 25 24 23 22 20 19 17 16 15 15 15 15 14 13 11 10 9 8 8 9 10 11 13 15 16
20 19 19 18 18 18 18 18 18 17 17 16 16 15 14 14 14 14 13 13 13 12 12 11 11 11 11 11 12 12 13 13 13 14 15 16 16 17 18 19 20 20 21 22 23 24 25 26 27 27 27 27 28 29 30 29 28 27 28 28 26 24 23 22 20 19 18 18 17 16 16 15 14 13 11 10 8 7 6 6 8 9 11 12 14
18 18 18 18 18 18 17 17 17 17 16 16 16 15 15 14 14 13 13 13 13 13 12 12 11 11 11 12 12 12 13 13 14 14 15 16 16 17 18 18 19 20 21 21 22 23 24 25 26 27 28 28 27 28 29 30 30 29 29 29 28 26 24 22 21 21 20 19 18 17 16 15 14 12 11 9 7 6 5 4 5 7 9 10 12
17 18 18 18 18 18 17 17 17 17 16 16 15 15 15 15 15 14 14 14 13 13 13 13 12 12 12 12 13 13 13 14 14 15 15 16 16 17 17 18 19 20 20 21 22 22 23 24 25 26 27 28 28 27 28 28 29 30 30 30 29 28 26 24 23 23 22 21 19 18 17 16 14 12 11 9 7 5 3 2 3 5 7 9 12
17 18 18 18 18 18 18 18 17 17 16 16 16 15 15 15 15 15 15 15 14 14 14 14 14 14 14 14 14 14 14 15 15 15 16 16 17 17 17 18 18 19 19 20 21 21 22 23 24 25 25 26 27 27 27 27 28 28 28 28 28 28 27 26 25 24 23 22 21 19 18 16 14 12 11 9 8 6 3 1 2 4 7 9 12
17 17 17 17 17 18 18 18 18 17 17 17 17 16 16 16 15 16 16 16 16 16 15 15 15 15 15 16 16 16 16 16 16 16 17 17 17 18 18 18 18 19 19 19 20 20 21 22 23 24 25 25 25 26 26 26 26 26 26 26 26 26 27 27 26 25 24 23 21 20 18 17 15 13 12 10 9 6 4 3 2 4 7 9 11
Wind_Direction
208 216 225 235 252 276 302 321 330 332 333 331 329 328 328 327 327 327 328 328 327 326 325 325 325 324 324 324 324 324 323 323 322 321 321 320 321 321 321 321 320 319 319 317 316 314 311 309 307 306 303 300 298 296 294 293 293 292 293 294 294 295 292 287 282 282 283 283 281 281 281 280 279 276 274 272 269 266 264 263 262 262 262 262 263
217 227 242 265 292 308 318 324 325 325 325 325 324 324 323 322 322 321 321 321 320 320 319 319 320 321 322 322 322 322 322 321 320 319 318 317 317 317 316 316 316 316 316 315 314 313 310 308 306 304 301 298 296 294 292 290 288 287 287 288 288 289 290 290 288 288 288 289 287 286 284 282 280 278 277 275 272 269 266 263 262 261 261 262 262
235 255 278 292 299 305 309 311 314 315 317 319 319 319 319 319 318 317 317 317 315 315 315 316 317 317 318 319 319 320 320 320 319 318 318 317 315 315 314 313 313 312 312 311 310 309 307 306 305 303 301 298 296 293 291 289 287 285 284 283 283 284 284 285 287 287 289 291 291 290 288 286 283 281 280 278 275 272 267 264 262 260 260 260 260
251 264 278 288 294 300 304 307 310 313 315 317 317 318 317 317 316 316 315 314 314 314 314 315 316 316 317 317 318 319 319 318 318 318 317 316 315 315 314 313 312 311 309 308 306 304 302 302 301 301 300 299 297 295 293 290 287 285 283 282 281 281 281 281 282 283 286 288 289 289 290 289 287 285 283 280 277 274 270 266 263 260 259 258 259
254 266 278 289 296 301 304 306 309 312 313 315 315 314 313 312 312 311 311 311 311 312 313 313 314 315 316 316 317 317 318 317 317 317 316 316 315 314 314 313 312 311 308 306 304 301 299 298 297 297 296 296 296 296 295 294 291 288 285 283 282 281 281 280 280 280 282 284 286 287 288 287 287 286 285 283 280 276 273 269 265 261 259 258 257
260 270 280 288 295 300 304 307 309 311 313 314 313 312 310 309 308 307 307 307 308 309 310 311 312 312 313 315 315 316 316 316 316 315 315 314 314 314 313 313 312 310 309 307 305 303 301 298 296 295 293 293 293 293 294 294 293 291 288 285 283 282 281 280 279 279 280 281 282 284 285 284 284 284 284 285 283 280 276 272 269 264 260 258 256
267 274 282 289 295 299 303 306 309 312 315 316 315 313 311 309 307 306 305 305 307 308 309 309 310 311 312 313 314 314 314 314 314 313 313 313 313 312 312 311 310 309 308 307 306 305 303 301 299 296 294 292 290 289 289 290 290 290 290 288 285 283 281 280 279 279 279 279 279 280 282 282 283 283 283 284 283 280 277 274 271 267 263 260 257
273 279 284 290 294 297 302 306 311 316 319 319 317 315 313 311 308 306 306 306 308 309 309 309 309 310 311 311 312 312 312 312 312 311 311 310 310 309 309 308 307 306 306 305 305 305 304 302 300 298 295 292 289 287 285 285 285 286 286 286 285 283 280 279 278 278 278 278 277 278 279 280 280 280 281 281 279 278 278 276 274 273 269 265 262
277 281 284 289 293 296 301 307 313 317 319 319 318 315 313 311 309 308 306 307 308 309 309 309 308 308 309 310 310 310 310 310 310 310 309 309 308 307 305 305 304 303 303 302 302 302 301 300 299 297 295 292 290 287 284 282 281 280 280 282 282 281 279 277 276 276 276 276 276 277 278 278 277 277 277 277 278 280 281 279 278 277 274 271 268
278 280 283 287 291 294 299 305 310 314 316 317 316 313 311 309 307 306 305 305 307 308 308 307 308 308 308 309 309 309 309 309 309 308 308 307 306 305 304 304 303 303 302 302 301 300 299 298 296 295 293 291 290 287 285 282 279 276 275 275 276 277 277 276 274 273 273 273 274 275 275 275 275 274 274 275 277 279 279 277 278 279 276 273 271
275 276 279 283 286 291 296 301 307 311 313 314 312 310 308 306 305 304 303 304 305 306 306 306 306 307 307 308 308 308 308 307 307 307 307 307 306 306 306 305 304 304 303 302 301 299 298 296 295 294 293 293 293 292 289 286 282 278 274 271 269 269 270 271 272 272 271 271 271 272 272 273 273 273 272 273 275 275 276 276 277 277 273 269 270
268 269 273 278 282 287 292 296 302 308 310 309 308 306 305 304 303 302 302 303 303 304 304 304 305 306 306 307 307 307 307 307 307 307 307 307 308 307 307 306 305 305 304 303 301 300 299 297 296 295 295 295 296 294 291 287 283 279 275 271 268 266 264 264 266 267 268 269 269 269 269 270 272 272 271 272 272 272 273 273 272 272 270 267 267
263 265 269 274 278 282 285 291 299 306 307 306 304 303 302 301 301 301 301 302 303 303 303 303 304 305 306 306 307 307 307 308 308 308 308 308 308 308 307 306 306 305 304 302 301 299 299 298 297 296 296 297 296 294 292 289 286 282 278 274 271 268 264 262 260 260 262 264 266 267 267 268 270 270 270 270 271 270 269 269 268 268 266 265 268
260 262 266 271 274 278 282 290 301 305 304 303 301 300 300 299 299 299 300 301 302 302 303 303 304 305 306 307 307 307 307 307 308 308 308 308 309 309 308 307 306 305 303 301 300 299 299 298 298 298 299 300 300 300 299 297 295 292 288 284 279 274 270 265 262 260 260 260 261 262 264 265 266 268 269 268 267 266 265 266 267 267 267 269 274
260 261 264 269 272 275 282 293 302 304 302 301 300 299 298 298 298 298 300 302 302 303 303 304 305 306 306 307 307 307 307 307 307 308 308 309 311 310 309 308 306 304 302 301 300 299 299 299 300 301 302 304 305 306 305 302 299 297 295 292 289 284 279 273 268 265 264 263 263 262 263 263 263 265 267 267 265 263 263 264 265 267 269 271 272
261 261 264 267 270 275 285 296 301 302 301 300 299 298 297 297 298 300 302 303 303 304 304 305 305 306 306 307 307 307 306 307 308 310 311 312 313 311 310 308 306 304 302 301 300 299 300 302 303 303 303 303 304 305 302 298 296 295 293 291 290 287 284 280 275 271 269 266 264 264 265 266 265 264 264 265 265 264 264 264 264 264 264 263 262
262 262 264 266 270 278 289 297 300 300 300 299 298 297 297 298 301 303 303 304 304 305 305 305 305 306 307 308 307 306 307 309 311 312 313 314 314 312 310 307 305 303 301 300 300 300 301 301 301 300 300 301 304 305 300 294 293 294 295 294 294 292 290 290 288 283 277 270 265 263 263 265 267 266 265 264 263 263 262 261 259 258 257 256 256
261 261 262 265 273 285 294 297 298 299 298 298 297 297 298 300 303 304 304 304 305 305 306 306 306 307 308 308 307 307 308 311 313 314 315 315 314 312 310 306 303 302 301 300 301 301 300 301 302 303 302 304 306 304 298 293 291 292 293 292 291 290 290 294 295 291 288 283 277 271 267 263 261 262 262 261 260 258 256 256 256 255 253 252 252
259 259 263 270 282 292 295 295 296 297 297 296 297 298 300 302 304 304 305 305 306 306 307 307 307 308 308 308 308 309 310 312 314 315 315 316 315 312 309 305 302 301 301 301 302 302 303 306 308 307 305 306 304 296 290 290 290 290 291 290 289 289 291 294 293 290 288 286 284 282 279 273 267 262 259 258 258 255 252 253 254 252 251 250 250
257 260 268 280 289 294 294 294 295 295 296 296 297 298 301 303 304 304 305 306 307 307 308 308 308 308 308 308 309 310 312 313 315 316 316 316 314 310 307 303 302 302 303 304 305 306 307 308 309 310 309 309 305 295 289 288 288 288 289 288 289 292 296 297 295 293 290 287 284 282 281 280 279 273 266 261 260 258 255 252 250 249 249 249 248
260 266 277 287 293 294 293 293 294 295 295 296 297 300 303 304 304 305 306 307 308 308 308 308 308 308 308 309 310 311 314 315 315 317 316 314 312 310 307 304 304 305 305 305 304 304 305 305 307 310 312 310 307 299 293 292 292 291 290 288 288 291 293 293 292 291 290 289 289 286 282 279 278 277 273 267 262 260 258 255 251 248 247 246 246
265 273 283 289 292 292 291 293 294 294 296 298 300 302 304 304 304 306 307 308 308 308 308 308 308 308 308 309 310 312 315 315 315 315 315 313 313 312 308 306 307 304 301 300 299 300 301 303 305 310 311 309 307 305 303 303 303 299 296 294 292 291 291 290 290 289 288 288 288 287 285 282 279 277 275 272 267 262 259 257 254 250 247 246 245
271 280 287 289 290 290 291 293 294 295 297 299 302 303 304 304 305 306 307 308 308 308 308 308 308 308 308 309 310 313 314 313 313 315 317 316 314 311 307 307 306 300 296 296 298 299 300 302 304 309 310 309 309 309 307 306 302 298 295 294 292 292 292 290 288 287 287 285 283 281 280 279 278 276 275 274 273 268 263 259 257 254 251 249 247
277 284 288 289 289 291 292 293 294 295 298 301 302 304 305 305 306 307 308 309 308 308 308 308 308 308 308 309 310 312 313 314 315 319 322 321 316 313 313 313 309 302 298 298 299 300 302 305 307 309 308 307 306 303 300 298 296 293 291 291 292 292 291 289 288 287 286 284 282 281 279 277 275 274 273 273 274 273 268 262 259 256 254 252 251
281 286 288 289 290 291 292 292 294 297 301 303 303 304 305 306 307 308 309 309 309 308 308 308 308 307 308 309 310 312 315 318 321 325 327 324 320 320 321 319 316 311 306 302 302 303 305 308 308 304 301 301 300 299 298 297 296 295 294 294 294 293 291 291 290 289 286 284 283 281 280 279 277 274 273 271 271 271 270 266 262 257 254 252 252
284 287 288 290 290 291 292 293 297 300 302 303 304 305 306 307 308 308 309 309 308 307 307 307 307 307 309 310 312 316 320 323 325 327 327 324 322 323 322 319 317 315 310 305 305 305 305 306 305 302 301 302 302 302 301 300 299 299 299 298 297 296 295 293 291 288 286 285 284 282 280 280 280 279 276 273 270 268 267 266 264 259 253 249 248
285 286 288 289 290 291 293 296 299 302 302 303 304 305 305 307 307 308 309 309 308 307 306 306 307 309 312 314 317 320 322 323 324 326 326 324 323 322 318 316 314 313 310 308 308 307 307 307 307 306 305 304 303 301 300 299 299 300 301 302 302 300 299 297 294 290 287 285 284 283 282 281 281 280 278 276 271 268 266 265 264 258 251 246 244
285 286 287 289 290 292 295 298 300 302 302 303 304 305 306 306 306 307 308 308 307 306 306 306 309 314 318 319 320 320 319 320 323 325 324 321 318 315 312 311 311 310 309 308 308 308 308 308 307 306 306 305 304 303 301 301 302 302 302 303 302 300 299 297 293 289 286 284 283 283 283 281 279 278 278 277 274 271 269 267 263 256 249 243 240
284 286 288 290 292 295 297 299 300 301 302 303 304 305 305 306 306 306 307 306 306 307 307 310 315 320 321 318 316 315 314 317 321 321 317 313 311 310 309 308 308 307 306 306 306 305 304 304 304 304 304 302 302 301 301 301 301 300 300 299 298 296 294 292 289 287 286 284 283 281 281 280 277 276 276 276 275 275 274 268 262 255 247 239 236
285 287 289 291 293 296 298 299 300 301 302 303 304 305 305 305 305 306 307 306 307 307 308 311 317 321 318 314 312 311 311 315 318 318 315 312 309 308 307 306 306 306 304 303 302 300 299 298 297 297 298 298 298 299 299 300 300 300 301 301 300 298 294 291 289 288 286 284 282 279 279 278 276 275 275 275 278 280 275 264 256 252 245 236 232
284 287 289 291 293 295 297 298 299 300 302 303 305 305 305 304 302 303 304 303 303 303 304 307 313 318 318 316 315 314 315 318 321 320 316 313 310 310 311 310 307 302 299 299 300 299 297 296 296 297 298 299 299 299 301 304 305 307 308 308 306 302 298 295 293 291 288 285 281 278 277 277 276 276 276 278 283 283 273 259 253 249 242 234 230
284 287 289 291 293 295 297 298 299 301 302 304 304 304 305 304 303 301 298 297 299 302 304 306 311 316 319 319 318 318 321 323 322 320 319 317 317 316 314 309 304 301 302 302 302 302 301 300 300 301 302 301 301 304 309 313 315 314 313 311 309 308 305 302 300 296 290 286 282 278 277 277 276 277 279 284 288 283 267 255 251 246 236 229 226
285 287 289 291 294 296 296 297 299 300 302 303 303 303 303 304 304 304 301 295 294 297 301 306 311 316 321 323 322 321 322 323 322 323 325 323 320 315 310 307 308 309 309 307 305 305 305 304 303 303 303 304 308 313 317 319 319 319 317 315 313 313 312 309 305 299 294 288 283 279 278 277 277 279 284 289 291 283 267 258 253 244 232 224 223
285 288 290 293 295 295 296 296 298 299 301 302 302 302 303 303 304 305 305 303 301 299 298 302 309 316 322 327 327 324 323 323 325 328 327 323 319 314 311 312 314 313 309 309 311 311 309 308 308 308 310 312 315 319 322 323 322 322 323 323 322 320 319 316 309 302 298 293 286 281 281 281 282 284 287 290 290 285 275 266 258 247 234 226 224
287 289 292 294 294 295 296 296 297 299 300 301 301 301 301 302 302 303 305 308 309 310 310 309 308 312 319 324 327 327 325 326 329 330 329 327 325 322 318 317 317 315 314 316 318 318 316 317 318 318 318 319 321 323 326 326 324 325 328 329 328 326 324 321 315 309 305 300 293 288 287 286 286 287 288 289 288 286 280 270 261 253 244 237 232
289 291 293 294 294 294 295 295 297 298 299 299 299 298 299 300 301 302 304 307 310 314 317 318 317 316 316 321 326 327 325 328 332 333 332 332 331 329 327 325 323 323 323 323 322 320 321 324 326 324 323 324 325 327 329 328 327 328 330 330 328 327 328 327 323 318 312 306 300 295 291 289 288 287 288 287 285 285 284 277 265 256 249 244 239
290 292 293 293 292 293 293 294 295 295 296 296 296 296 297 299 300 301 304 308 311 314 319 323 324 322 321 325 330 330 330 334 338 338 337 338 340 339 339 337 335 333 331 330 329 325 324 327 330 330 329 330 330 331 332 331 329 328 328 328 329 329 330 329 327 323 318 312 307 303 299 296 294 291 289 287 285 285 288 282 268 255 248 242 237
290 291 292 291 291 291 291 291 292 292 292 293 293 294 295 296 298 301 304 308 312 316 321 325 327 327 329 332 334 335 339 344 345 343 345 348 351 352 350 347 343 342 340 338 337 333 330 331 334 335 336 336 335 334 334 332 330 329 328 329 330 330 329 327 326 324 320 314 310 306 301 298 297 294 291 289 287 285 287 281 266 252 245 239 231
289 290 290 290 290 290 289 290 290 289 290 290 290 291 292 294 297 302 305 308 312 316 321 325 328 331 335 338 339 342 349 353 353 350 350 354 358 360 359 354 350 347 345 343 341 339 337 337 340 342 343 343 340 338 337 335 332 330 329 330 332 332 331 330 329 327 323 317 310 305 300 298 296 293 290 289 288 285 282 277 266 255 249 245 238
288 288 288 288 288 288 288 288 288 287 288 289 289 289 291 294 298 302 305 308 312 316 321 325 329 335 341 346 350 354 355 356 357 357 357 358 1 4 5 2 358 353 349 346 344 343 341 342 345 348 349 350 347 345 343 341 337 335 334 333 334 334 335 335 334 331 328 323 316 310 306 304 300 294 289 288 288 285 279 274 268 262 258 255 251
286 286 287 286 286 285 285 284 285 286 287 288 288 288 290 294 298 302 305 307 310 315 319 323 329 337 345 353 360 359 354 352 356 359 1 2 3 4 6 7 4 0 355 351 347 345 344 346 349 352 353 355 354 352 348 346 343 341 338 336 335 334 336 337 336 335 334 333 330 324 318 313 308 303 297 291 286 283 278 272 268 266 262 258 253
285 285 285 284 283 282 281 281 282 284 285 286 287 288 291 293 296 299 302 305 307 309 312 317 325 335 344 352 355 353 349 350 354 358 1 3 3 3 5 6 6 5 3 359 354 350 348 347 350 355 358 359 359 358 354 351 347 345 343 339 337 336 336 336 336 337 338 339 339 338 334 326 317 312 308 300 291 286 279 271 265 262 258 253 248
284 283 283 280 279 278 277 278 280 281 283 285 286 287 289 291 293 296 299 300 301 302 305 311 319 329 339 346 348 347 347 350 354 357 0 3 4 4 5 5 6 6 7 5 3 359 357 355 355 357 0 2 4 4 2 358 354 350 348 345 341 339 338 338 338 340 341 342 342 342 342 338 333 328 323 315 303 293 284 275 266 258 253 248 244
281 280 278 276 275 274 274 276 278 280 282 284 285 286 287 288 290 292 294 293 293 295 300 306 313 323 333 340 342 343 346 351 355 358 0 3 5 6 6 6 6 6 7 7 7 6 4 4 4 5 6 6 7 8 8 7 4 -0 356 353 350 347 345 344 344 346 346 345 344 343 343 342 341 339 336 329 317 304 292 282 272 262 254 247 241
277 275 274 272 271 271 273 275 277 279 280 282 284 284 285 285 286 287 288 287 287 289 293 300 310 320 328 334 337 341 346 351 354 357 0 2 4 5 6 6 7 7 8 8 8 7 6 6 7 9 11 12 11 11 12 12 11 8 5 2 359 357 354 352 350 350 351 350 350 349 347 345 343 342 340 335 326 314 300 288 276 265 255 246 239
272 271 270 269 268 269 271 273 275 276 279 281 282 282 281 281 282 282 282 282 283 284 288 295 305 314 322 328 331 336 341 345 348 352 356 358 359 0 2 3 5 6 7 8 8 8 7 6 6 8 11 13 14 14 14 14 15 13 11 9 6 4 2 359 357 356 357 358 358 357 354 352 348 345 343 338 328 316 302 286 272 260 250 242 235
268 267 266 265 265 267 268 270 272 274 276 278 279 279 277 276 277 278 278 280 281 283 287 292 300 308 315 320 324 328 332 336 340 344 347 350 352 354 355 356 358 1 3 5 6 6 7 7 6 7 8 11 14 15 15 15 16 16 16 14 11 9 8 7 6 6 6 6 5 3 0 358 354 351 348 344 335 324 305 281 262 249 239 233 226
264 263 262 262 263 265 266 268 269 271 273 275 277 276 275 274 273 274 275 277 279 282 286 291 297 304 309 313 317 321 323 326 330 335 338 341 344 346 348 350 352 353 356 360 2 4 5 6 6 7 7 9 12 15 16 15 15 17 18 17 15 14 14 15 15 15 14 13 12 11 8 4 1 359 358 355 348 336 316 282 254 237 226 219 212
260 259 260 261 262 263 265 266 267 268 271 272 274 274 274 274 273 273 274 276 278 281 284 288 293 298 302 305 309 313 315 318 322 326 329 332 335 338 341 344 347 349 351 354 357 359 1 2 4 5 6 7 9 12 14 16 15 16 17 18 16 17 19 21 22 23 22 21 20 19 15 12 11 11 12 10 5 357 339 288 235 215 206 197 191
257 258 259 260 262 263 264 264 265 267 269 270 272 273 273 273 274 274 275 276 277 279 282 286 290 294 297 300 302 306 309 313 317 319 322 325 327 330 334 337 340 343 347 349 352 354 357 358 360 2 3 4 6 7 10 14 15 15 15 16 17 18 20 23 25 26 27 27 27 26 23 21 21 23 25 25 22 20 22 33 184 182 183 182 182
256 257 259 260 261 262 263 263 264 266 268 270 272 273 273 274 276 276 276 278 279 280 282 285 288 292 294 297 299 302 305 308 312 315 317 319 321 324 327 330 333 336 340 343 346 349 352 354 356 357 359 1 3 3 5 9 12 13 13 15 17 19 21 23 25 26 28 30 32 32 31 31 32 33 35 35 34 38 54 82 129 159 170 175 178
Height
1534 1534 1534 1534 1534 1533 1533 1532 1531 1530 1530 1529 1528 1527 1526 1525 1524 1523 1522 1521 1521 1520 1520 1519 1519 1518 1518 1517 1517 1516 1515 1514 1513 1512 1510 1509 1507 1505 1503 1501 1499 1498 1496 1496 1495 1494 1492 1491 1490 1490 1490 1487 1486 1486 1485 1484 1483 1482 1481 1479 1478 1478 1475 1473 1467 1457 1456 1460 1459 1457 1458 1458 1455 1455 1456 1457 1459 1461 1461 1461 1462 1463 1463 1463 1464
1532 1533 1532 1532 1532 1532 1531 1530 1530 1529 1528 1528 1527 1526 1525 1524 1523 1522 1521 1520 1519 1519 1518 1517 1516 1516 1515 1514 1514 1513 1512 1511 1510 1508 1507 1506 1504 1503 1501 1499 1497 1495 1493 1491 1490 1488 1486 1485 1484 1484 1484 1483 1481 1481 1480 1480 1479 1477 1476 1476 1473 1473 1472 1469 1465 1457 1451 1454 1456 1453 1453 1453 1450 1449 1451 1451 1452 1455 1455 1454 1456 1457 1457 1458 1459
1531 1531 1531 1531 1530 1530 1529 1529 1528 1528 1527 1526 1525 1525 1523 1522 1522 1521 1520 1519 1518 1517 1516 1515 1515 1513 1512 1512 1511 1510 1509 1507 1506 1504 1502 1501 1499 1498 1497 1496 1494 1492 1490 1489 1487 1484 1482 1479 1478 1477 1476 1476 1475 1475 1474 1474 1474 1472 1471 1471 1469 1467 1468 1466 1462 1456 1449 1447 1450 1450 1449 1448 1445 1444 1446 1446 1446 1448 1447 1447 1449 1450 1451 1452 1453
1530 1530 1530 1530 1529 1529 1528 1527 1527 1526 1526 1525 1524 1523 1522 1521 1520 1519 1518 1517 1516 1515 1514 1513 1512 1510 1509 1508 1507 1506 1504 1502 1501 1499 1497 1495 1494 1492 1491 1490 1489 1487 1486 1485 1483 1481 1479 1476 1474 1472 1470 1468 1467 1467 1468 1467 1467 1466 1465 1464 1463 1462 1462 1461 1458 1454 1448 1443 1443 1445 1445 1443 1441 1440 1441 1440 1440 1441 1441 1441 1442 1443 1444 1446 1446
1528 1528 1528 1528 1527 1527 1526 1526 1525 1525 1524 1523 1522 1521 1520 1519 1518 1517 1516 1515 1514 1513 1512 1510 1509 1508 1506 1505 1503 1502 1500 1498 1496 1494 1492 1490 1488 1486 1485 1483 1482 1481 1480 1479 1477 1476 1475 1473 1472 1470 1467 1464 1462 1460 1460 1460 1460 1459 1459 1458 1457 1456 1455 1455 1453 1450 1446 1439 1437 1439 1440 1439 1437 1436 1436 1436 1435 1435 1435 1435 1435 1436 1438 1439 1440
1527 1527 1527 1526 1526 1525 1524 1524 1523 1523 1522 1522 1521 1520 1519 1518 1517 1515 1514 1513 1512 1511 1510 1508 1507 1505 1504 1502 1500 1498 1496 1494 1492 1489 1487 1485 1483 1481 1479 1477 1475 1473 1472 1471 1470 1469 1468 1467 1466 1466 1464 1461 1459 1456 1454 1453 1452 1451 1451 1451 1451 1450 1449 1448 1447 1445 1441 1436 1433 1432 1433 1434 1433 1431 1432 1432 1430 1429 1428 1428 1429 1430 1431 1432 1433
1525 1525 1525 1524 1524 1523 1523 1522 1522 1521 1521 1520 1519 1518 1517 1516 1515 1514 1512 1511 1510 1508 1507 1506 1504 1502 1501 1499 1497 1495 1493 1490 1488 1485 1483 1480 1478 1476 1473 1471 1469 1467 1465 1463 1462 1461 1460 1459 1458 1458 1457 1456 1454 1452 1450 1448 1447 1445 1444 1444 1444 1444 1443 1441 1441 1439 1436 1432 1429 1426 1426 1427 1427 1426 1427 1428 1426 1424 1423 1423 1422 1423 1425 1426 1427
1522 1523 1523 1522 1522 1521 1521 1521 1520 1519 1519 1518 1517 1516 1515 1514 1512 1511 1510 1508 1507 1506 1504 1502 1501 1499 1498 1496 1494 1491 1489 1487 1484 1481 1479 1476 1474 1472 1469 1467 1464 1461 1459 1457 1456 1454 1452 1450 1449 1448 1448 1448 1447 1446 1444 1443 1441 1439 1438 1438 1437 1436 1436 1435 1434 1433 1431 1427 1424 1421 1421 1421 1420 1420 1421 1422 1421 1419 1419 1420 1418 1417 1419 1420 1421
1520 1521 1520 1520 1520 1519 1519 1518 1517 1517 1516 1515 1515 1513 1512 1511 1509 1508 1507 1505 1504 1502 1500 1499 1497 1495 1494 1492 1490 1487 1485 1483 1480 1477 1474 1472 1470 1467 1465 1463 1460 1457 1454 1452 1450 1448 1445 1443 1441 1440 1439 1438 1437 1437 1437 1437 1436 1433 1432 1432 1432 1431 1429 1428 1427 1426 1425 1422 1419 1417 1416 1414 1414 1415 1415 1416 1415 1415 1417 1417 1414 1413 1414 1414 1414
1518 1518 1518 1518 1517 1517 1517 1516 1515 1515 1514 1513 1512 1510 1509 1508 1506 1505 1503 1502 1500 1498 1497 1495 1493 1491 1489 1487 1485 1483 1481 1478 1476 1473 1471 1468 1465 1462 1459 1457 1455 1452 1449 1446 1444 1442 1439 1437 1434 1432 1430 1429 1428 1428 1428 1428 1428 1427 1426 1426 1426 1425 1423 1422 1420 1419 1419 1416 1414 1412 1411 1408 1408 1410 1410 1410 1411 1412 1412 1412 1410 1409 1410 1409 1406
1516 1515 1515 1515 1515 1514 1514 1513 1513 1512 1511 1510 1509 1507 1506 1505 1503 1502 1500 1499 1497 1495 1493 1491 1489 1487 1485 1483 1481 1478 1476 1474 1471 1469 1466 1463 1460 1456 1453 1450 1448 1445 1442 1439 1436 1433 1431 1429 1426 1424 1422 1421 1420 1420 1419 1419 1419 1419 1419 1418 1419 1419 1418 1416 1414 1413 1413 1411 1408 1407 1405 1402 1401 1404 1405 1405 1406 1407 1407 1407 1406 1406 1406 1404 1401
1513 1512 1512 1512 1512 1512 1512 1511 1511 1510 1509 1508 1506 1505 1503 1501 1500 1498 1497 1495 1493 1491 1490 1487 1485 1483 1481 1478 1476 1473 1471 1468 1466 1463 1461 1458 1455 1451 1447 1444 1440 1438 1435 1432 1428 1425 1422 1420 1418 1416 1415 1414 1413 1412 1411 1410 1410 1410 1409 1409 1409 1410 1411 1410 1409 1408 1407 1405 1403 1401 1399 1398 1396 1397 1400 1402 1402 1402 1403 1403 1402 1401 1401 1400 1398
1510 1509 1509 1509 1509 1509 1509 1509 1508 1507 1506 1505 1503 1502 1500 1498 1497 1495 1493 1492 1489 1487 1486 1483 1481 1479 1476 1474 1471 1468 1466 1463 1460 1458 1455 1452 1450 1446 1441 1438 1434 1431 1428 1424 1421 1418 1415 1412 1410 1408 1408 1407 1406 1405 1403 1401 1401 1400 1400 1399 1399 1400 1401 1402 1402 1401 1400 1400 1397 1394 1393 1394 1392 1391 1395 1398 1399 1399 1398 1397 1396 1396 1396 1394 1393
1507 1506 1506 1506 1506 1506 1506 1506 1505 1504 1503 1501 1499 1498 1497 1495 1493 1491 1489 1488 1485 1483 1481 1479 1477 1474 1471 1469 1466 1463 1461 1458 1456 1453 1450 1447 1444 1440 1436 1432 1428 1424 1421 1418 1415 1412 1409 1407 1403 1401 1401 1400 1399 1398 1396 1394 1392 1391 1390 1389 1389 1389 1391 1392 1393 1393 1393 1393 1392 1388 1388 1389 1387 1386 1389 1393 1394 1394 1393 1392 1391 1391 1390 1389 1389
1504 1503 1503 1503 1503 1503 1503 1502 1501 1500 1499 1497 1495 1494 1492 1491 1489 1488 1485 1483 1481 1479 1477 1474 1472 1469 1467 1464 1461 1458 1456 1453 1451 1449 1445 1442 1438 1434 1430 1425 1422 1418 1415 1412 1409 1406 1404 1402 1399 1397 1395 1394 1393 1392 1391 1390 1387 1385 1384 1382 1381 1381 1380 1381 1383 1384 1385 1386 1385 1383 1382 1382 1382 1381 1382 1385 1387 1387 1387 1387 1387 1386 1385 1384 1383
1500 1500 1500 1500 1500 1500 1500 1499 1498 1496 1495 1493 1491 1490 1488 1487 1485 1483 1481 1479 1476 1474 1472 1470 1467 1464 1462 1459 1456 1453 1451 1449 1446 1443 1439 1436 1432 1428 1423 1419 1415 1412 1409 1407 1404 1402 1400 1398 1395 1393 1391 1390 1389 1389 1388 1387 1383 1381 1379 1377 1375 1374 1372 1373 1376 1378 1379 1379 1378 1377 1375 1374 1375 1375 1376 1377 1378 1380 1381 1381 1381 1381 1380 1378 1376
1497 1497 1497 1497 1497 1497 1496 1495 1494 1492 1491 1489 1487 1486 1484 1483 1480 1478 1476 1473 1472 1470 1467 1465 1463 1460 1457 1454 1451 1448 1445 1443 1441 1437 1433 1430 1426 1422 1418 1414 1410 1406 1404 1402 1400 1397 1396 1395 1393 1390 1387 1386 1385 1384 1384 1383 1379 1377 1374 1371 1369 1367 1365 1367 1370 1371 1370 1369 1369 1368 1368 1367 1368 1368 1370 1371 1372 1375 1376 1373 1373 1375 1374 1371 1369
1494 1494 1494 1494 1494 1493 1493 1491 1490 1488 1487 1485 1483 1482 1480 1478 1476 1473 1471 1468 1466 1464 1462 1460 1458 1455 1452 1450 1446 1443 1440 1438 1435 1432 1428 1425 1421 1417 1413 1409 1405 1402 1399 1398 1396 1394 1392 1391 1390 1387 1383 1381 1380 1380 1380 1379 1375 1373 1371 1367 1364 1361 1361 1363 1364 1362 1362 1361 1360 1359 1359 1359 1359 1360 1362 1363 1365 1368 1368 1364 1365 1368 1367 1365 1364
1491 1491 1491 1491 1490 1490 1489 1488 1486 1484 1483 1481 1479 1477 1475 1473 1471 1469 1466 1464 1461 1459 1457 1454 1452 1450 1447 1445 1442 1438 1435 1433 1430 1427 1423 1420 1417 1413 1409 1404 1400 1398 1395 1393 1391 1390 1388 1386 1386 1384 1380 1378 1377 1376 1376 1375 1372 1369 1367 1364 1358 1355 1357 1359 1357 1355 1355 1354 1353 1352 1351 1351 1351 1351 1352 1354 1355 1358 1359 1358 1359 1360 1358 1358 1358
1488 1488 1487 1487 1487 1486 1485 1483 1482 1480 1479 1477 1475 1474 1471 1469 1467 1464 1462 1459 1457 1454 1452 1449 1446 1444 1442 1439 1436 1434 1430 1427 1425 1422 1418 1415 1413 1410 1406 1401 1397 1394 1391 1389 1386 1384 1383 1381 1380 1380 1377 1375 1373 1372 1372 1371 1369 1366 1364 1360 1354 1351 1352 1353 1350 1350 1349 1347 1346 1346 1345 1343 1344 1344 1344 1345 1346 1347 1349 1350 1351 1351 1351 1350 1351
1484 1484 1484 1484 1483 1482 1481 1479 1478 1476 1475 1473 1471 1469 1467 1465 1462 1460 1457 1454 1452 1449 1447 1444 1441 1438 1437 1434 1431 1429 1426 1423 1419 1417 1414 1411 1409 1407 1402 1398 1395 1391 1387 1385 1383 1380 1378 1376 1375 1374 1372 1370 1369 1368 1367 1366 1365 1362 1359 1356 1352 1350 1350 1348 1345 1345 1343 1341 1340 1339 1337 1336 1336 1336 1336 1337 1337 1338 1340 1341 1341 1342 1343 1342 1342
1481 1481 1480 1480 1479 1478 1476 1475 1473 1472 1470 1469 1467 1465 1463 1460 1458 1455 1453 1450 1447 1445 1442 1440 1437 1433 1431 1429 1427 1424 1422 1419 1415 1413 1410 1407 1405 1403 1400 1396 1393 1390 1385 1382 1380 1378 1375 1372 1370 1369 1368 1366 1364 1363 1362 1361 1360 1357 1355 1352 1349 1348 1347 1344 1341 1339 1338 1336 1334 1332 1330 1329 1329 1329 1329 1329 1329 1330 1332 1332 1332 1333 1333 1334 1334
1477 1477 1476 1476 1474 1473 1472 1470 1469 1468 1466 1464 1462 1460 1458 1456 1453 1451 1448 1446 1443 1440 1438 1435 1432 1429 1426 1424 1422 1420 1418 1415 1412 1409 1407 1404 1401 1400 1397 1393 1391 1388 1384 1379 1377 1374 1371 1368 1366 1364 1363 1361 1360 1358 1357 1356 1354 1352 1350 1348 1346 1344 1343 1340 1337 1335 1332 1330 1328 1325 1323 1323 1322 1322 1322 1321 1321 1322 1324 1325 1324 1325 1325 1326 1327
1473 1473 1472 1471 1470 1469 1468 1466 1465 1463 1462 1460 1457 1455 1453 1451 1449 1446 1444 1442 1439 1436 1433 1431 1428 1424 1421 1418 1416 1415 1412 1410 1407 1405 1402 1400 1397 1395 1392 1389 1387 1385 1381 1377 1374 1370 1367 1364 1362 1360 1359 1357 1355 1354 1353 1351 1349 1347 1345 1343 1341 1339 1337 1334 1332 1330 1326 1323 1321 1318 1315 1315 1315 1315 1315 1316 1316 1316 1317 1317 1317 1317 1317 1318 1319
1469 1469 1468 1467 1466 1465 1463 1462 1461 1459 1457 1455 1453 1451 1449 1446 1444 1442 1440 1438 1435 1432 1429 1426 1423 1420 1417 1413 1410 1409 1406 1403 1400 1399 1397 1394 1392 1389 1386 1384 1383 1381 1377 1373 1370 1367 1363 1360 1358 1357 1356 1354 1351 1349 1347 1345 1344 1342 1340 1338 1336 1334 1331 1328 1326 1323 1320 1316 1314 1311 1308 1307 1308 1308 1308 1309 1309 1309 1309 1309 1309 1309 1310 1310 1311
1465 1464 1464 1462 1462 1460 1459 1458 1456 1454 1453 1451 1448 1446 1444 1442 1439 1437 1436 1434 1431 1428 1425 1422 1419 1416 1413 1409 1405 1402 1400 1397 1395 1393 1391 1389 1386 1383 1381 1379 1377 1375 1372 1369 1365 1362 1360 1357 1355 1352 1350 1348 1346 1343 1340 1339 1337 1336 1334 1332 1330 1327 1324 1322 1320 1317 1313 1310 1308 1305 1301 1301 1301 1301 1302 1302 1301 1300 1301 1301 1301 1301 1302 1303 1303
1461 1460 1459 1458 1457 1456 1454 1453 1452 1450 1448 1446 1444 1442 1440 1438 1435 1433 1432 1430 1427 1424 1421 1419 1416 1413 1408 1405 1401 1397 1395 1393 1391 1389 1387 1384 1381 1378 1376 1374 1371 1369 1366 1362 1359 1356 1353 1351 1349 1346 1343 1341 1340 1337 1335 1333 1330 1328 1326 1325 1323 1320 1318 1316 1313 1310 1307 1304 1301 1298 1295 1295 1295 1294 1294 1294 1293 1292 1293 1294 1293 1293 1294 1296 1296
1456 1456 1455 1454 1453 1451 1450 1449 1447 1445 1444 1442 1440 1438 1436 1434 1432 1430 1428 1426 1423 1420 1418 1415 1412 1409 1404 1400 1397 1394 1391 1390 1388 1385 1383 1380 1378 1376 1373 1371 1368 1365 1361 1358 1354 1351 1347 1344 1342 1339 1337 1334 1332 1330 1328 1326 1323 1321 1319 1317 1315 1313 1311 1309 1306 1303 1300 1298 1294 1291 1290 1289 1288 1287 1287 1286 1285 1284 1285 1286 1285 1285 1287 1289 1289
1452 1451 1450 1450 1448 1447 1446 1444 1442 1441 1439 1437 1435 1433 1432 1430 1428 1426 1425 1423 1420 1417 1413 1410 1408 1405 1401 1398 1396 1392 1388 1386 1385 1383 1381 1379 1377 1374 1371 1368 1365 1362 1359 1356 1352 1348 1344 1341 1338 1335 1333 1330 1327 1325 1322 1320 1317 1315 1312 1310 1308 1306 1304 1302 1299 1296 1294 1291 1288 1286 1284 1283 1281 1281 1281 1279 1277 1276 1277 1277 1277 1277 1280 1281 1281
1448 1447 1446 1446 1444 1443 1441 1440 1438 1436 1435 1432 1431 1429 1427 1426 1425 1422 1420 1419 1417 1415 1411 1408 1406 1403 1400 1397 1395 1391 1387 1383 1382 1380 1378 1376 1374 1371 1368 1365 1362 1359 1356 1352 1348 1344 1340 1337 1335 1332 1330 1327 1324 1321 1318 1315 1313 1309 1307 1305 1303 1300 1298 1295 1292 1289 1287 1285 1282 1280 1279 1278 1276 1275 1275 1273 1271 1269 1269 1269 1270 1271 1273 1273 1274
1443 1443 1442 1441 1440 1438 1437 1435 1434 1432 1430 1428 1426 1424 1422 1422 1422 1421 1418 1415 1413 1413 1410 1407 1404 1402 1398 1395 1392 1389 1385 1382 1379 1377 1374 1372 1370 1367 1365 1362 1358 1354 1351 1347 1343 1339 1336 1333 1330 1328 1325 1323 1320 1317 1314 1311 1308 1304 1301 1298 1296 1294 1291 1288 1286 1283 1281 1279 1277 1275 1274 1273 1271 1270 1269 1267 1264 1262 1261 1262 1263 1264 1265 1266 1267
1439 1439 1438 1437 1435 1434 1433 1431 1429 1428 1426 1424 1422 1420 1417 1415 1415 1417 1417 1414 1411 1409 1407 1404 1401 1399 1397 1393 1389 1385 1382 1379 1376 1373 1371 1368 1366 1363 1361 1357 1353 1349 1346 1342 1338 1335 1332 1330 1326 1323 1321 1319 1316 1313 1310 1307 1304 1301 1297 1293 1290 1287 1285 1282 1279 1277 1275 1273 1271 1270 1268 1267 1266 1265 1263 1261 1258 1257 1256 1257 1257 1257 1258 1259 1261
1435 1434 1434 1432 1431 1430 1428 1427 1425 1424 1422 1420 1418 1416 1414 1411 1409 1409 1410 1411 1409 1407 1404 1401 1398 1395 1393 1391 1387 1383 1379 1377 1373 1370 1367 1365 1362 1359 1355 1351 1348 1345 1341 1338 1335 1332 1329 1326 1323 1320 1318 1315 1312 1310 1307 1304 1300 1297 1294 1290 1285 1282 1279 1276 1274 1272 1269 1267 1266 1264 1263 1262 1261 1260 1258 1256 1254 1253 1252 1252 1253 1253 1253 1254 1256
1431 1430 1429 1428 1427 1426 1424 1423 1421 1420 1418 1416 1414 1412 1411 1409 1406 1404 1403 1402 1403 1403 1402 1400 1396 1392 1388 1386 1384 1380 1377 1374 1370 1367 1364 1361 1358 1354 1350 1346 1344 1342 1339 1335 1332 1328 1325 1323 1320 1318 1315 1312 1309 1306 1303 1300 1297 1294 1290 1286 1282 1278 1274 1272 1269 1267 1264 1262 1261 1259 1258 1258 1257 1256 1254 1252 1251 1250 1249 1249 1249 1249 1250 1251 1252
1427 1426 1425 1424 1423 1421 1420 1419 1417 1415 1414 1413 1411 1409 1407 1406 1404 1402 1399 1397 1396 1395 1395 1395 1394 1390 1386 1383 1380 1378 1374 1371 1368 1364 1360 1357 1353 1349 1345 1342 1340 1338 1335 1332 1329 1325 1322 1320 1317 1315 1312 1308 1305 1303 1300 1297 1294 1290 1286 1282 1278 1274 1271 1268 1265 1263 1260 1259 1257 1256 1255 1254 1253 1252 1251 1249 1248 1247 1246 1245 1246 1246 1247 1248 1250
1423 1422 1421 1420 1419 1417 1416 1415 1413 1412 1410 1409 1407 1406 1404 1403 1401 1399 1397 1395 1393 1391 1389 1389 1388 1387 1384 1381 1378 1375 1372 1369 1365 1361 1357 1354 1350 1346 1342 1339 1336 1334 1331 1328 1325 1322 1320 1317 1314 1312 1309 1305 1302 1300 1297 1294 1291 1287 1283 1280 1276 1272 1268 1265 1262 1259 1257 1256 1254 1253 1252 1251 1249 1248 1247 1246 1244 1243 1242 1242 1242 1242 1243 1245 1247
1419 1418 1417 1416 1415 1413 1412 1411 1410 1408 1407 1405 1404 1403 1401 1400 1399 1397 1395 1393 1390 1388 1387 1385 1383 1382 1381 1377 1374 1372 1369 1366 1363 1359 1355 1352 1348 1344 1341 1337 1334 1331 1329 1326 1323 1320 1317 1315 1312 1309 1306 1303 1300 1297 1294 1291 1288 1284 1281 1277 1273 1269 1266 1263 1260 1257 1255 1253 1251 1250 1248 1247 1246 1245 1244 1242 1241 1240 1239 1238 1238 1239 1239 1241 1243
1415 1414 1413 1412 1410 1409 1408 1407 1406 1405 1404 1402 1401 1400 1398 1397 1396 1394 1392 1390 1388 1386 1384 1382 1380 1378 1376 1373 1370 1368 1366 1363 1360 1357 1353 1349 1346 1342 1339 1336 1333 1330 1327 1324 1322 1319 1316 1313 1310 1307 1303 1300 1297 1294 1291 1288 1285 1282 1279 1275 1271 1267 1264 1261 1258 1255 1252 1250 1248 1246 1245 1244 1242 1241 1240 1239 1238 1237 1237 1236 1236 1236 1237 1238 1240
1410 1409 1408 1407 1406 1405 1404 1403 1403 1402 1401 1400 1398 1397 1395 1394 1393 1391 1390 1388 1386 1384 1382 1381 1379 1376 1373 1370 1368 1365 1362 1360 1357 1354 1351 1348 1344 1341 1338 1335 1332 1329 1326 1323 1321 1318 1315 1311 1308 1305 1302 1299 1295 1292 1289 1286 1283 1280 1276 1273 1269 1265 1262 1259 1256 1253 1250 1248 1246 1244 1242 1241 1239 1238 1237 1236 1235 1235 1235 1234 1234 1235 1235 1237 1238
1405 1405 1404 1403 1402 1401 1400 1400 1399 1398 1397 1396 1395 1394 1393 1391 1390 1389 1387 1385 1384 1382 1380 1379 1377 1374 1372 1369 1366 1363 1361 1359 1357 1354 1351 1348 1345 1342 1339 1335 1332 1329 1325 1322 1320 1317 1314 1310 1307 1304 1300 1297 1294 1291 1287 1284 1281 1278 1274 1271 1267 1264 1260 1257 1254 1251 1248 1245 1243 1241 1239 1237 1236 1235 1234 1234 1233 1232 1232 1232 1233 1233 1234 1235 1237
1401 1400 1400 1399 1398 1397 1396 1396 1396 1395 1394 1393 1392 1391 1390 1388 1387 1386 1385 1383 1381 1380 1379 1377 1375 1373 1371 1368 1366 1364 1362 1360 1357 1355 1352 1349 1346 1342 1339 1336 1333 1329 1326 1322 1319 1316 1313 1310 1306 1303 1299 1296 1293 1289 1286 1282 1279 1276 1273 1270 1266 1262 1259 1255 1252 1249 1246 1243 1240 1238 1236 1234 1233 1232 1231 1231 1230 1230 1230 1230 1231 1232 1233 1234 1235
1396 1395 1395 1395 1394 1393 1393 1393 1392 1391 1391 1390 1389 1388 1387 1386 1385 1383 1382 1381 1379 1378 1377 1376 1374 1372 1370 1368 1366 1364 1362 1359 1357 1354 1351 1349 1346 1343 1339 1336 1333 1330 1326 1323 1319 1316 1312 1309 1306 1302 1299 1295 1292 1288 1285 1281 1278 1274 1271 1268 1265 1262 1258 1254 1251 1248 1244 1241 1239 1236 1234 1232 1230 1229 1229 1228 1228 1228 1228 1228 1229 1230 1231 1231 1232
1391 1391 1391 1390 1390 1390 1389 1389 1389 1388 1388 1387 1386 1385 1384 1383 1382 1381 1380 1379 1377 1376 1375 1374 1372 1370 1369 1367 1365 1363 1361 1358 1356 1353 1351 1348 1345 1342 1339 1336 1333 1330 1327 1324 1320 1317 1313 1309 1306 1303 1299 1296 1292 1289 1285 1282 1278 1274 1271 1268 1265 1261 1257 1254 1250 1247 1243 1240 1238 1235 1233 1231 1229 1227 1227 1227 1227 1227 1227 1227 1227 1228 1229 1229 1230
1386 1386 1386 1386 1386 1386 1386 1386 1385 1385 1385 1384 1383 1382 1381 1380 1379 1378 1377 1376 1375 1374 1373 1371 1370 1368 1367 1365 1363 1362 1359 1357 1355 1352 1350 1347 1345 1342 1339 1336 1333 1330 1327 1324 1321 1317 1314 1310 1307 1303 1299 1296 1293 1289 1286 1282 1279 1275 1271 1267 1264 1260 1257 1253 1250 1246 1243 1240 1237 1235 1233 1231 1229 1227 1226 1225 1225 1226 1226 1226 1226 1226 1227 1228 1229
1382 1382 1382 1382 1382 1383 1383 1382 1382 1382 1381 1381 1380 1380 1379 1378 1377 1376 1375 1374 1373 1372 1371 1369 1368 1366 1365 1363 1361 1359 1357 1355 1353 1351 1349 1346 1344 1341 1339 1336 1333 1330 1327 1324 1321 1318 1314 1311 1307 1303 1300 1296 1293 1289 1286 1282 1279 1275 1272 1268 1264 1260 1257 1253 1250 1247 1244 1241 1238 1235 1233 1231 1229 1227 1226 1225 1225 1225 1225 1225 1226 1226 1227 1227 1228
1378 1378 1378 1379 1379 1379 1379 1379 1379 1379 1378 1378 1378 1377 1376 1375 1374 1374 1373 1372 1371 1370 1368 1367 1366 1364 1362 1361 1359 1358 1356 1354 1352 1350 1348 1346 1343 1341 1338 1335 1333 1330 1327 1324 1321 1318 1315 1311 1308 1304 1300 1297 1293 1290 1286 1282 1279 1275 1272 1268 1265 1261 1257 1254 1251 1247 1244 1241 1239 1236 1234 1232 1230 1228 1227 1226 1225 1225 1225 1225 1225 1226 1226 1227 1228
1374 1374 1375 1375 1376 1376 1376 1376 1376 1376 1376 1375 1375 1375 1374 1373 1372 1372 1371 1370 1369 1367 1366 1365 1364 1362 1361 1359 1358 1356 1355 1353 1351 1349 1347 1345 1342 1340 1337 1335 1333 1330 1327 1324 1321 1318 1315 1312 1309 1305 1301 1298 1294 1290 1287 1283 1280 1276 1272 1269 1265 1262 1258 1255 1251 1248 1245 1242 1239 1237 1235 1233 1231 1230 1228 1227 1226 1225 1225 1225 1226 1226 1227 1228 1229
1371 1371 1372 1372 1372 1373 1373 1373 1373 1373 1373 1373 1372 1372 1371 1371 1370 1369 1368 1367 1366 1365 1364 1363 1362 1360 1359 1358 1356 1355 1353 1352 1350 1348 1346 1344 1342 1339 1337 1335 1332 1330 1327 1324 1321 1319 1316 1313 1309 1306 1302 1299 1295 1291 1288 1285 1281 1277 1273 1270 1267 1263 1259 1256 1252 1249 1246 1243 1241 1238 1236 1234 1233 1231 1230 1228 1228 1227 1227 1227 1227 1227 1228 1229 1230
1368 1368 1369 1369 1370 1370 1370 1370 1370 1370 1370 1370 1370 1369 1369 1368 1368 1367 1366 1365 1364 1363 1362 1361 1359 1358 1357 1356 1355 1353 1352 1350 1349 1347 1345 1343 1341 1339 1336 1334 1332 1329 1327 1324 1321 1319 1316 1313 1310 1307 1303 1300 1296 1293 1289 1286 1283 1279 1275 1272 1268 1265 1261 1258 1254 1251 1248 1245 1243 1240 1238 1236 1234 1233 1232 1230 1230 1229 1229 1229 1229 1229 1230 1231 1232
1365 1366 1366 1366 1367 1367 1367 1368 1368 1368 1368 1368 1367 1367 1366 1366 1365 1364 1363 1363 1362 1361 1360 1358 1357 1356 1355 1354 1353 1351 1350 1348 1347 1345 1343 1341 1339 1337 1335 1333 1331 1328 1326 1324 1321 1318 1316 1313 1310 1307 1304 1301 1298 1294 1291 1287 1284 1281 1277 1274 1271 1267 1264 1260 1256 1253 1250 1247 1245 1243 1241 1239 1237 1235 1234 1233 1232 1232 1231 1231 1231 1232 1232 1233 1233
1363 1363 1363 1364 1364 1364 1365 1365 1365 1365 1365 1365 1364 1364 1364 1363 1363 1362 1361 1360 1359 1358 1357 1356 1355 1354 1353 1351 1350 1349 1348 1346 1345 1343 1341 1340 1338 1336 1334 1332 1329 1327 1325 1323 1320 1318 1315 1312 1310 1307 1304 1301 1298 1295 1292 1289 1286 1283 1280 1277 1273 1270 1266 1263 1259 1256 1253 1250 1248 1246 1244 1242 1240 1238 1237 1236 1235 1234 1234 1234 1234 1234 1235 1235 1236